Grand Island, NE

10:59 PM CST on November 19, 2017 (GMT -0600)
Central Nebraska Regional

Weather History for KGRI - May, 2013

Change the Weather History Date:

Wednesday, May 22, 2013

  Actual Average Record
Temperature  
Mean Temperature 55 °F 63 °F  
Max Temperature 63 °F 75 °F 97 °F (1964)
Min Temperature 47 °F 52 °F 29 °F (1963)
Degree Days  
Heating Degree Days 10 4  
Month to date heating degree days 181 145  
Since 1 July heating degree days 6107 6147  
Cooling Degree Days 0 2  
Month to date cooling degree days 55 29  
Year to date cooling degree days 61 40  
Growing Degree Days 4 (Base 50)    
Moisture  
Dew Point 46 °F    
Average Humidity 77    
Maximum Humidity 93    
Minimum Humidity 60    
Precipitation  
Precipitation 0.00 in 0.15 in 1.57 in (1922)
Month to date precipitation 2.24 3.04  
Year to date precipitation 8.84 8.58  
Snow  
Snow 0.00 in 0.00 in T in (1949)
Month to date snowfall 0.7 0.1  
Since 1 July snowfall 35.2 29.1  
Snow Depth 0.00 in    
Sea Level Pressure  
Sea Level Pressure 29.89 in    
Wind  
Wind Speed 14 mph (NW)    
Max Wind Speed 23 mph    
Max Gust Speed 28 mph    
Visibility 10 miles    
Events      
T = Trace of Precipitation, MM = Missing Value Source: NWS Daily Summary

Daily Weather History Graph

Daily Weather History Graph

Search for Another Location

Airport or City:

Trip Planner

Search our weather history database for the weather conditions in past years. The results will help you decide how hot, cold, wet, or windy it might be!

Date:

Astronomy

May. 22, 2013 Rise Set
Actual Time 6:09 AM CDT 8:51 PM CDT
Civil Twilight 5:37 AM CDT 9:23 PM CDT
Nautical Twilight 4:57 AM CDT 10:03 PM CDT
Astronomical Twilight 4:11 AM CDT 10:49 PM CDT
Moon 6:14 PM CDT (5/22) 4:15 AM CDT (5/22)
Length of Visible Light 15h 45m
Length of Day
14h 41m
Waxing Gibbous, 91% of the Moon is Illuminated
May 22
Waxing Gibbous
May 24
Full
May 31
Last Quarter
Jun 8
New
Jun 16
First Quarter

Hourly Weather History & Observations

Time (CDT) Temp. Dew Point Humidity Pressure Visibility Wind Dir Wind Speed Gust Speed Precip Events Conditions
12:48 AM 50.0 °F 44.6 °F 82% 29.82 in 10.0 mi NW 15.0 mph - N/A   Mostly Cloudy
12:53 AM 48.9 °F 45.0 °F 86% 29.81 in 10.0 mi NW 13.8 mph - N/A   Mostly Cloudy
1:07 AM 48.2 °F 44.6 °F 87% 29.82 in 10.0 mi NW 9.2 mph - N/A   Scattered Clouds
1:53 AM 48.0 °F 44.1 °F 86% 29.82 in 10.0 mi NW 10.4 mph - N/A   Clear
2:51 AM 48.2 °F 44.6 °F 87% 29.84 in 10.0 mi NW 5.8 mph - N/A   Mostly Cloudy
2:53 AM 46.9 °F 44.1 °F 90% 29.84 in 10.0 mi NW 4.6 mph - N/A   Mostly Cloudy
3:53 AM 48.0 °F 44.1 °F 86% 29.85 in 10.0 mi NW 9.2 mph - N/A   Overcast
4:53 AM 48.0 °F 44.1 °F 86% 29.84 in 10.0 mi NW 12.7 mph - N/A   Overcast
5:14 AM 48.2 °F 44.6 °F 87% 29.84 in 10.0 mi NW 12.7 mph - N/A   Overcast
5:53 AM 48.0 °F 45.0 °F 89% 29.84 in 10.0 mi WNW 12.7 mph - N/A   Overcast
6:53 AM 48.9 °F 45.0 °F 86% 29.85 in 10.0 mi WNW 15.0 mph - N/A   Overcast
7:53 AM 48.9 °F 44.1 °F 83% 29.86 in 10.0 mi NW 13.8 mph 23.0 mph N/A   Mostly Cloudy
8:13 AM 51.8 °F 44.6 °F 76% 29.86 in 10.0 mi NW 20.7 mph - N/A   Scattered Clouds
8:44 AM 51.8 °F 44.6 °F 76% 29.87 in 10.0 mi WNW 17.3 mph 26.5 mph N/A   Overcast
8:53 AM 52.0 °F 45.0 °F 77% 29.87 in 10.0 mi NW 20.7 mph 26.5 mph N/A   Overcast
9:07 AM 53.6 °F 44.6 °F 72% 29.88 in 10.0 mi NW 18.4 mph 26.5 mph N/A   Overcast
9:53 AM 54.0 °F 45.0 °F 72% 29.88 in 10.0 mi NW 19.6 mph 25.3 mph N/A   Overcast
10:53 AM 54.0 °F 46.0 °F 75% 29.90 in 10.0 mi NW 15.0 mph 23.0 mph N/A   Overcast
11:53 AM 57.9 °F 46.9 °F 67% 29.90 in 10.0 mi NNW 19.6 mph 27.6 mph N/A   Overcast
12:53 PM 57.9 °F 46.9 °F 67% 29.91 in 10.0 mi NW 17.3 mph - N/A   Overcast
1:53 PM 62.1 °F 48.0 °F 60% 29.90 in 10.0 mi NNW 16.1 mph 23.0 mph N/A   Overcast
2:53 PM 63.0 °F 48.0 °F 58% 29.90 in 10.0 mi NNW 13.8 mph 23.0 mph N/A   Overcast
2:58 PM 62.6 °F 48.2 °F 59% 29.90 in 10.0 mi NNW 12.7 mph 21.9 mph N/A   Overcast
3:53 PM 62.1 °F 48.0 °F 60% 29.91 in 10.0 mi NNW 16.1 mph - N/A   Overcast
4:53 PM 62.1 °F 48.9 °F 62% 29.91 in 10.0 mi NNW 13.8 mph - N/A   Overcast
5:53 PM 62.1 °F 48.9 °F 62% 29.92 in 10.0 mi NNW 11.5 mph - N/A   Overcast
6:53 PM 61.0 °F 48.9 °F 64% 29.93 in 10.0 mi NNW 10.4 mph - N/A   Overcast
7:53 PM 59.0 °F 48.9 °F 69% 29.96 in 10.0 mi North 13.8 mph - N/A   Overcast
8:53 PM 55.9 °F 50.0 °F 80% 29.99 in 10.0 mi North 17.3 mph - N/A   Overcast
9:38 PM 55.4 °F 48.2 °F 77% 30.01 in 10.0 mi North 15.0 mph - N/A   Overcast
9:53 PM 54.0 °F 48.9 °F 83% 30.02 in 10.0 mi North 15.0 mph - N/A   Overcast
10:53 PM 54.0 °F 46.9 °F 77% 30.05 in 10.0 mi North 15.0 mph - N/A   Overcast
11:53 PM 52.0 °F 46.9 °F 83% 30.06 in 10.0 mi North 12.7 mph - N/A   Mostly Cloudy